Timeline UpdatesTrip UpdatesNews PostsPvt Posts♥♥Travel TipsAdmin PostsConv PostsFollowed PostsChat RequestsBlog PostsPNR Posts

Disclaimer
Search
 
 
Fri Oct 31, 2014 18:17:12 ISTHomeTrainsΣChainsAtlasPNRForumGalleryNewsFAQTripsMembersLoginFeedback
No Recent News for this Train
Other Trains in the News **new
Latest...
Discontinued from 1/9/14 #1193229
Thu Aug 21, 2014 (09:08PM)
⇐ Return Journey: Train# 13039

13040/Delhi-Howrah Janta Express (UnReserved)

TRAIN IS CANCELLED
Change Departure Station:
Change Arrival Station:
Post a Train Travel TipPost a Train Travel Tip **new
Post a Comment/Question/Picture/VideoPost a Comment/Question/Picture/Video
Inaugural Run
Tue Oct 01, 1946
Pantry/Catering
✕ NO Pantry Car
✕ NO Catering
RSA - Rake Sharing
Rake/Coach Composition
All coaches having Unreserved.
Loco
HWH WAP-4
News    PNR    Forum    Time-Table    Availability    Fare Chart    Map    Arr/Dep History    Trips    Gallery    ΣChains    X/O    Timeline    
Travel Time: 38h 30m    118 halts    Distance: 1537 km    Avg Speed: 39 km/hr
Type: Mail/Express
Zone: ER/Eastern
Departs @ 15:35 (Avg 2h 39m late)
Platform# 10
SMTWTFS
Old Delhi Junction/DLI 
Arrives @ 06:05 +2 nights (Avg 8h 0m late)
Platform# 7
SMTWTFS
Kolkata Howrah Junction/HWH 

118 halts. 292 intermediate Stations between Old Delhi Junction and Kolkata Howrah Junction

Show ALL intermediate Stations  

#TrkCodeStation NameX/OArrivesAvgDepartsAvgHaltPFDay#KmSpeedElevZoneAddress
1/==/DLIOld Delhi Junction (16)»  -15:35+2:391010.029219mNRNear Chandni Chowk Metro Station, Delhi NCT
2/==/DSAShahdara Junction (4)  15:48+5:2615:50+5:262m216.352212mNRCircular Rd, Delhi NCT
3/==/SBBSahibabad Junction (5)  15:58-16:00-2m1113.245209mNRGhaziabad, Uttar Pradesh
4/==/GZBGhaziabad Junction (6)  16:09+2:4916:11+2:532m2119.946217mNRGhaziabad, Uttar Pradesh
5/==/MIUMaripat (2)  16:24+5:5516:25+6:001m--129.958213mNCRNational Highway 91, Uttar Pradesh
6/==/DERDadri (3)  16:32+6:0116:33+6:011m2136.769210mNCR203207, Uttar Pradesh
7/==/AJRAjaibpur (2)  16:41+6:0316:42+6:111m--145.862207mNCRGreater Noida, Uttar Pradesh
8/==/DKDEDankaur (3)  16:50+6:1616:51+6:171m--154.190209mNCRShyam Nagar Mandi, Uttar Pradesh
9/==/WAIRWair (2)  16:57+6:2216:58+6:221m1163.149203mNCRBulandshahr District, Uttar Pradesh
10/==/CHLChola (3)  17:04+6:2317:05+6:281m--168.089204mNCRTahsil Bulandshahar, Uttar Pradesh
11/==/SKQSikandarpur (2)  17:11+6:3117:12+6:321m--176.949199mNCRMDR 70W, Uttar Pradesh
12/==/KRJKhurja Junction (4)  17:19+6:3217:20+6:341m2182.648199mNCRBulandshahr, Uttar Pradesh
13/==/DARDanwar (2)  17:34+6:3117:35+6:311m--193.768198mNCRDanwar, Uttar Pradesh
14/==/SOMSomna (2)  17:44+6:3217:45+6:321m--1104.068195mNCRNational Highway 91, Uttar Pradesh
15/==/KLAKulwa (2)  17:54+6:3317:55+6:331m--1114.151190mNCRAligarh, Uttar Pradesh
16/==/ALJNAligarh Junction (4)  18:09+4:3018:10+4:321m21126.149192mNCRAligarh, Uttar Pradesh
17/==/MXKMandrak (2)  18:27+7:4518:28+7:451m--1139.988190mNCRNational Highway 93, Uttar Pradesh
18/==/SNSSasni (3)  18:33+7:4718:34+7:571m--1147.349185mNCRSasni, Uttar Pradesh
19/==/HRSHathras Junction (3)  18:45+7:5518:50+7:525m11156.271183mNCRMahamaya Nagar(05722-242803), Uttar Pradesh
20/==/JLSJalesar Road (1)  19:07+7:5419:08+8:271m11176.366172mNCRMDR 106W, Uttar Pradesh
21/==/BRNBarhan Junction  19:20+8:3519:21+8:351m--1189.57173mNCRJN Point-Tundle/Aligarh/Etah, Uttar Pradesh
22/--/TDLTundla Junction (5)  21:33+6:4521:43+6:4210m31204.266167mNCRDistt.Firozabad, Uttar Pradesh
23/==/FZDFirozabad (4)  21:58+6:4621:59+6:491m21220.721164mNCRFirozabad, Uttar Pradesh
24/==/SKBShikohabad Junction (4)  22:55+6:1523:00+6:205m21240.658166mNCRDistrict Firozabad, Uttar Pradesh
25/==/JGRJaswantnagar (2)  23:41+6:1423:42+6:151m--1280.025154mNCRJaswantnagar, Uttar Pradesh
26/==/ETWEtawah (5)  00:20+3:4500:25+3:485m32296.085154mNCRDistt. Etawah, Uttar Pradesh
27/==/BNTBharthana (3)  00:39+6:0700:40+6:081m--2315.969147mNCRBharthana, Uttar Pradesh
28/==/ULDAchalda (3)  00:57+6:0900:58+6:101m--2335.463147mNCRDist. Auraiya(05688-1072), Uttar Pradesh
29/==/PHDPhaphund (4)  01:14+6:0801:15+6:091m--2352.229146mNCRdist. Auraiya, Uttar Pradesh
30/==/JJKJhinjhak (3)  01:56+5:4401:57+5:451m22372.052140mNCRAuraiya, Uttar Pradesh
31/==/RURARura (4)  02:19+5:4002:20+5:411m--2391.033137mNCRJhinjhak, Uttar Pradesh
32/==/CNBKanpur Central (10)  03:40+2:5703:50+2:5610m42435.460128mNCRKANPUR-208 001, Uttar Pradesh
33/==/BKOBindki Road  04:36+5:4104:38+5:412m--2481.770124mNCRFatehpur, Uttar Pradesh
34/==/FTPFatehpur (3)  05:05+5:3905:10+5:475m--2513.083120mNCRFatehpur, Uttar Pradesh
35/==/KGAKhaga (3)  05:35+5:5205:40+5:495m--2547.774114mNCRFatehpur, Uttar Pradesh
36/==/SROSirathu (2)  06:00+5:3106:05+5:285m12572.574109mNCRSirathu, Uttar Pradesh
37/==/SJTShujaatpur  06:13+5:5406:18+5:495m--2582.377107mNCRNational Highway 2, Uttar Pradesh
38/==/BREBharwari  06:26+5:5806:28+6:082m--2592.657108mNCRBharwari, Uttar Pradesh
39/==/SYWNSaiyid Sarawan  06:44+6:4106:45+6:411m--2607.916106mNCR212203 ?, Uttar Pradesh
40/==/MREManauri  07:02+6:0007:03+6:011m--2612.558105mNCRSabderganj-Fatehpur Rd, Uttar Pradesh
41/==/SFGSubedarGanj (3)  07:17+6:3707:18+6:481m--2625.97100mNCRAllahabad, Uttar Pradesh
42/==/ALDAllahabad Junction (10)  07:50+6:0608:00+6:2110m62629.747100mNCRAllahabad 211003, Uttar Pradesh
43/==%NYNNaini Junction (4)  08:09+8:1108:11+8:112m12636.84998mNCRAllahabad, Uttar Pradesh
44/==/KCNKarchana  08:24+8:1608:25+8:161m--2647.47294mNCRKarchana, Uttar Pradesh
45/==/MJAMeja Road (4)  08:42+8:1508:43+8:281m--2667.83294mNCRDistrict Allahabad, Uttar Pradesh
46/==/UNDUnchdih  08:58+8:2508:59+8:251m--2675.94494mNCRUnchdih, Uttar Pradesh
47/==/MNFManda Road  09:10+8:2509:15+8:355m--2684.05693mNCRNH 76, Uttar Pradesh
48/==/JIAJigna (1)  09:24+8:3709:25+8:381m12692.35994mNCRNational Highway 76, Uttar Pradesh
49/==/GAEGaipura (4)  09:32+8:4109:33+8:421m--2699.26286mNCRGaipura, Uttar Pradesh
50/==/BDLVindhyachal (3)  09:45+8:4209:46+8:421m22711.51988mNCRMirzapur, Uttar Pradesh
51/==/MZPMirzapur (3)  10:09+5:5710:10+6:011m--2718.94788mNCRMirzapur, Uttar Pradesh
52/==/CARChunar Junction (5)  10:50+8:3210:55+8:285m22750.15785mNCRChunar Junction, Uttar Pradesh
53/--/KYTKailahat (4)  11:05+8:3011:06+8:311m--2759.63283mNCRKailahat, Uttar Pradesh
54/==/ARWAhraura Road (4)  11:22+8:2611:23+9:171m--2768.12285mNCRDist. Mirzapur - 231305, Uttar Pradesh
55/==/MGSMughal Sarai Junction (8)  12:00+8:2212:15+6:4915m22781.95083mECRDistt: Chandauli Pin 232101, Uttar Pradesh
56/==/SLDSakaldiha (2)  12:37-12:38-1m--2800.18281mECRState Highway 69, Uttar Pradesh
57/==/ZNAZamania (2)  12:57+3:5812:58+3:581m--2826.15877mECRGhazipur, Uttar Pradesh
58/==/DLNDildarnagar Junction (2)  13:12-13:14-2m--2839.67972mECRDildarnagar, Uttar Pradesh
59/==/BWHBhadaura (2)  13:20-13:21-1m--2847.55569mECRGhazipur, Uttar Pradesh
60/==/GMRGahmar (2)  13:30-13:31-1m--2855.66968mECRDistt: Ghazipur, Uttar Pradesh
61/==/CSAChausa (2)  13:39-13:40-1m--2864.96668mECRState Highway 14, Bihar
62/==/BXRBuxar (3)  13:50+4:4013:55+4:405m--2875.88267mECRBuxar, Bihar
63/==/DUREDumraon (3)  14:07-14:08-1m--2892.15170mECRDumraon, Bihar
64/==/TWGTwining Ganj  14:17-14:18-1m--2899.77270mECRArrah Buxar Rd, Bihar
65/==/RPRRaghunathpur (4)  14:25+5:0214:26+5:021m--2908.15969mECRRaghunathpur, Bihar
66/==/BYNBanahi (2)  14:35-14:36-1m--2917.04467mECRBanahi, Bihar
67/==/BEABihiya (3)  14:44-14:45-1m--2922.96367mECRBehea, Bihar
68/==/KRSKarisath (2)  14:56-14:57-1m--2934.42065mECRKarisath, Bihar
69/==/ARAAra Junction (3)  15:27+9:2215:29+9:222m--2944.39963mECRDistt: Bhojpur Ph 06182-233411, Bihar
70/==/KUAKulharia (2)  15:35-15:36-1m--2954.23661mECRChandi Sahar Rd, Bihar
71/==/KWRKoelwar (2)  15:42-15:43-1m--2957.84865mECRNational Highway 30, Bihar
72/==/BTABihta (2)  15:54+7:1215:55+7:121m--2966.53662mECRDistt: Patna, Bihar
73/==/SDESadisopur (2)  16:02-16:03-1m--2970.75364mECRSadisopur, Bihar
74/==/NEONeora (2)  16:11-16:12-1m--2977.82061mECRNational Highway 98, Bihar
75/==/DNRDanapur (5)  16:30-16:40-10m--2983.81958mECRKhagaul, Bihar
76/==/PNBEPatna Junction (10)  17:10+7:2317:20+7:2210m--2993.22257mECRPatna 800001, Bihar
77/==/RJPBRajendra Nagar Bihar (4)  17:27-17:29-2m--2995.85155mECRPatna 800001, Bihar
78/==/GZHGulzarbagh (3)  17:34-17:36-2m--21000.12655mECRPatna, Bihar
79/==/PNCPatna Saheb (3)  17:43+6:1417:45+6:142m--21003.14659mECRPatna 800008, Bihar
80/==/BKGBanka Ghat (2)  17:53-17:54-1m--21009.26156mECRPatna, Bihar
81/==/FUTFatwa (6)  18:00-18:01-1m--21015.35653mECRPatna, Bihar
82/==/KOOKhusropur (2)  18:10-18:11-1m--21023.85052mECRPatna, Bihar
83/==/KWOKarauta (2)  18:18-18:19-1m--21029.63652mECRKarauta, Bihar
84/==/SMBHSalim Pur Bihar  18:23-18:24-1m--21032.03254mECRSalim Pur, Bihar
85/==/TKBGTeka Bigha Halt  18:28-18:29-1m--21034.21751mECRTeka Bigha, Bihar
86/==/BKPBakhtiyarpur Junction (5)18:45-19:05-20m--21038.67751mECRPatna, Bihar
87/==/ATLAthmal Gola (2)  19:12-19:13-1m--21047.66852mECRPatna, Bihar
88/==/BARHBarh (3)  19:21-19:22-1m--21056.76849mECRBarh, Bihar
89/==/PHKPunarakh (2)  19:31-19:33-2m--21066.93251mECRPunarakh, Bihar
90/==/MMKBMemrakhabad (2)  19:38-19:39-1m--21069.63449mECRMor, Bihar
91/==/KNHPKanhaipur (2)  19:43-19:44-1m--21071.93947mECRMor, Bihar
92/==/MORMor (2)  19:49-19:50-1m--21075.14946mECRMor, Bihar
93/==/MKAMokama Junction (4)  19:59-20:01-2m--21082.54648mECRPatna, Bihar
94/--/ANAHAunta Halt  20:06-20:07-1m--21086.35444mECRPanchmahla, Bihar
95/==/HTZHathidah Junction (2)  20:12-20:13-1m121090.81850mECRMusahari, Bihar
96/==/RDUMRampur Dumra (3)  20:26-20:27-1m--21094.63346mECRNational Highway 80, Bihar
97/==/BRYABarhiya (3)  20:37-20:38-1m--21100.25147mECRBarahiya, Bihar
98/==/DMRXDumri Halt (1)  20:43-20:44-1m121104.53949mECRNational Highway 80, Bihar
99/==/MKBMankatha  20:52-20:53-1m--21109.75647mECRNational Highway 80, Bihar
100/==/LKRLuckeesarai Junction (2)  20:59-21:00-1m--21115.3852mECRLakhisarai, Bihar
101/==/KIULKiul Junction (5)  21:10+9:5221:12+9:522m--21116.73353mECRDist. Lakhisarai, Bihar
102/==/BSQPBansipur (2)  21:20-21:21-1m--21121.02253mECRKiul, Bihar
103/==/MNPMananpur (2)  21:28-21:29-1m--21123.66257mECRState Highway 18, Bihar
104/==/BFMBhalui (2)  21:35-21:36-1m--21129.810663mECRState Highway 18, Bihar
105/==/JMUJamui (2)  21:44-21:45-1m--21143.94681mECRState Highway 72, Bihar
106/==/GHRGidhaur (2)  22:04-22:05-1m--21158.534106mECRState Highway 18, Bihar
107/==/JAJJhajha (4)  22:25-22:33-8m--21169.966143mECRJhajha, Bihar
108/==/STLSimultala (2)  22:50-22:51-1m--21188.666247mERSimultala, Bihar
109/==/JSMEJasidih Junction (5)  23:14+9:4523:19+9:455m--21214.070271mERJasidih, Jharkhand
110/==/MDPMadhupur Junction (4)  23:44-23:52-8m--21243.185254mER06432-224478, Jharkhand
111/==/CRJChittaranjan (3)  00:32-00:33-1m231299.543182mERMihijam, Jharkhand
112/==/ASNAsansol Junction (7)  01:08-01:18-10m--31324.668113mERDist - Bardhaman, West Bengal
113/==/RNGRaniGanj (4)  01:34-01:35-1m--31342.73492mERRaniganj, West Bengal
114/==/UDLAndal Junction (6)  01:48+9:5501:50+9:552m--31350.07386mERAndal, West Bengal
115/==/DGRDurgapur (5)  02:04+7:1802:08+7:184m--31367.05571mERDurgapur, West Bengal
116/==/BWNBarddhaman Junction (8)  03:17+8:5503:27+8:5510m--31430.65434mERDist - Barddhaman, West Bengal
117/==/BDCBandel Junction (7)  04:42+9:3804:47+9:385m--31497.85114mERdist - HOOGHLY, West Bengal
118/==/CGRChandan Nagar (3)  04:55-04:56-1m--31504.64716mERDist -HOOGHLY - 712136, West Bengal
119/==/SRPSerampore (4)  05:13-05:14-1m--31517.82311mERdist - hooghly, West Bengal
120/==/HWHKolkata Howrah Junction (23)•  06:05+8:00-731537.3-10mERHowrah 711101, West Bengal
Scroll to Top
Scroll to Bottom